Location: Bussy-Saint-Georges
(48.8410°N, 2.7017°E)
Time: 15:31:16
(UTC+00:00)

H-2A R/B - Pass Details

Date: 18 October 2021
Orbit: 527 x 651 km, 98.3° (Epoch: 28 November)

Event Time Altitude Azimuth Distance (km) Brightness Sun altitude
Rises 19:07:16 0° 191° (S) 2,924 6.0 -22.7°
Reaches altitude 10° 19:09:43 10° 202° (SSW) 2,005 5.3 -23.1°
Maximum altitude 19:13:33 30° 263° (W) 1,125 4.5 -23.7°
Drops below altitude 10° 19:17:19 10° 325° (NW) 1,959 5.7 -24.3°
Sets 19:19:41 0° 337° (NNW) 2,844 6.5 -24.7°
